Weather History for Pineville, WV

Change the Weather History Date:

Saturday, July 13, 2013

  Actual Average (KBKW) Record (KBKW)
Temperature  
Mean Temperature 72 °F 71 °F  
Max Temperature 84 °F 80 °F 90 °F (1954)
Min Temperature 59 °F 62 °F 46 °F (1953)
Degree Days  
Heating Degree Days 0 0  
Month to date heating degree days 0  
Since 1 June heating degree days 39  
Since 1 July heating degree days 0  
Cooling Degree Days 6 6  
Month to date cooling degree days 78  
Year to date cooling degree days 230  
Since 1 June cooling degree days 189  
Growing Degree Days 22 (Base 50)    
Moisture  
Dew Point 66 °F    
Average Humidity 83    
Maximum Humidity 100    
Minimum Humidity 57    
Precipitation  
Precipitation 0.00 in 0.17 in 1.63 in (1949)
Month to date precipitation 2.01  
Year to date precipitation 23.17  
Snow  
Snow 0.00 in - - ()
Month to date snowfall  
Since 1 September snowfall  
Snow Depth -    
Sea Level Pressure  
Sea Level Pressure 30.19 in    
Wind  
Wind Speed - (North)    
Max Wind Speed -    
Max Gust Speed -    
Visibility 10 miles    
Events      
T = Trace of Precipitation, MM = Missing Value Source: NWS Daily Summary

Daily Weather History Graph

Daily Weather History Graph

Search for Another Location

Airport:

Trip Planner

Search our weather history database for the weather conditions in past years. The results will help you decide how hot, cold, wet, or windy it might be!

Date:

Astronomy

Jul. 13, 2013 Rise Set
Actual Time 6:15 AM EDT 8:48 PM EDT
Civil Twilight 5:45 AM EDT 9:18 PM EDT
Nautical Twilight 5:07 AM EDT 9:56 PM EDT
Astronomical Twilight 4:25 AM EDT 10:38 PM EDT
Moon 11:23 AM EDT (7/13) 11:35 PM EDT (7/13)
Length of Visible Light 15h 33m
Length of Day
14h 32m
Waxing Crescent, 25% of the Moon is Illuminated
Jul 13
Waxing Crescent
Jul 15
First Quarter
Jul 22
Full
Jul 29
Last Quarter
Aug 6
New

Hourly Weather History & Observations

Time (EDT) Temp. Heat Index Dew Point Humidity Pressure Visibility Wind Dir Wind Speed Gust Speed Precip Events Conditions
12:15 AM 62.1 °F - 62.1 °F 100% 30.13 in 10.0 mi North - - N/A   Clear
12:35 AM 61.7 °F - 61.7 °F 100% 30.14 in 10.0 mi North - - N/A   Clear
12:55 AM 61.5 °F - 61.5 °F 100% 30.15 in 10.0 mi North - - N/A   Clear
1:15 AM 61.0 °F - 61.0 °F 100% 30.15 in 7.0 mi North - - N/A   Clear
1:35 AM 60.8 °F - 60.8 °F 100% 30.15 in 10.0 mi North - - N/A   Clear
1:55 AM 60.4 °F - 60.4 °F 100% 30.15 in 10.0 mi North - - N/A   Clear
2:15 AM 60.1 °F - 60.1 °F 100% 30.15 in 10.0 mi North - - N/A   Clear
2:35 AM 59.9 °F - 59.9 °F 100% 30.14 in 7.0 mi North - - N/A   Clear
2:55 AM 59.9 °F - 59.9 °F 100% 30.14 in 7.0 mi North - - N/A   Clear
3:15 AM 59.9 °F - 59.9 °F 100% 30.14 in 7.0 mi North - - N/A   Clear
3:35 AM 60.3 °F - 60.3 °F 100% 30.13 in 10.0 mi North - - N/A   Clear
3:55 AM 59.9 °F - 59.9 °F 100% 30.13 in 10.0 mi North - - N/A   Clear
4:15 AM 60.8 °F - 60.8 °F 100% 30.13 in 2.5 mi North - - N/A   Scattered Clouds
4:35 AM 60.1 °F - 60.1 °F 100% 30.13 in 5.0 mi North - - N/A   Scattered Clouds
4:55 AM 59.9 °F - 59.9 °F 100% 30.13 in 10.0 mi North - - N/A   Mostly Cloudy
5:15 AM 59.7 °F - 59.7 °F 100% 30.14 in 10.0 mi North - - N/A   Overcast
5:35 AM 60.3 °F - 60.3 °F 100% 30.15 in 10.0 mi North - - N/A   Overcast
5:55 AM 60.8 °F - 60.8 °F 100% 30.16 in 10.0 mi North - - N/A   Overcast
6:15 AM 61.7 °F - 61.7 °F 100% 30.16 in 10.0 mi North - - N/A   Overcast
6:35 AM 62.1 °F - 62.1 °F 100% 30.16 in 10.0 mi North - - N/A   Overcast
6:55 AM 62.4 °F - 62.4 °F 100% 30.17 in 10.0 mi North - - N/A   Overcast
7:15 AM 62.8 °F - 62.8 °F 100% 30.18 in 10.0 mi North - - N/A   Mostly Cloudy
7:35 AM 63.5 °F - 63.5 °F 100% 30.18 in 10.0 mi North - - N/A   Overcast
7:55 AM 64.4 °F - 64.4 °F 100% 30.18 in 10.0 mi North - - N/A   Mostly Cloudy
8:15 AM 64.9 °F - 64.9 °F 100% 30.19 in 10.0 mi North - - N/A   Scattered Clouds
8:35 AM 67.3 °F - 67.1 °F 99% 30.19 in 10.0 mi North - - N/A   Clear
8:55 AM 67.8 °F - 66.4 °F 95% 30.20 in 10.0 mi North - - N/A   Clear
9:15 AM 68.5 °F - 66.6 °F 93% 30.20 in 10.0 mi North - - N/A   Clear
9:35 AM 71.2 °F - 66.6 °F 85% 30.20 in 10.0 mi North - - N/A   Clear
9:55 AM 72.1 °F - 67.3 °F 85% 30.20 in 10.0 mi North - - N/A   Scattered Clouds
10:15 AM 74.5 °F - 68.0 °F 80% 30.20 in 10.0 mi North - - N/A   Mostly Cloudy
10:35 AM 76.3 °F - 67.6 °F 74% 30.21 in 10.0 mi North - - N/A   Scattered Clouds
10:55 AM 76.3 °F - 67.1 °F 73% 30.21 in 10.0 mi North - - N/A   Scattered Clouds
11:15 AM 77.0 °F - 66.9 °F 71% 30.22 in 10.0 mi North - - N/A   Scattered Clouds
11:35 AM 77.7 °F - 66.4 °F 68% 30.21 in 10.0 mi North - - N/A   Scattered Clouds
11:55 AM 78.8 °F - 67.3 °F 68% 30.22 in 10.0 mi North - - N/A   Mostly Cloudy
12:15 PM 79.2 °F - 67.1 °F 66% 30.22 in 10.0 mi North - - N/A   Mostly Cloudy
12:35 PM 79.9 °F - 66.7 °F 64% 30.22 in 10.0 mi North - - N/A   Scattered Clouds
12:55 PM 80.4 °F 82.8 °F 67.1 °F 64% 30.22 in 10.0 mi North - - N/A   Mostly Cloudy
1:15 PM 81.0 °F 83.4 °F 67.5 °F 63% 30.22 in 10.0 mi North - - N/A   Mostly Cloudy
1:35 PM 82.0 °F 84.9 °F 67.6 °F 62% 30.21 in 10.0 mi North - - N/A   Scattered Clouds
1:55 PM 81.7 °F 84.3 °F 67.6 °F 62% 30.21 in 10.0 mi North - - N/A   Mostly Cloudy
2:15 PM 82.9 °F 86.0 °F 68.4 °F 61% 30.21 in 10.0 mi North - - N/A   Mostly Cloudy
2:35 PM 82.9 °F 86.0 °F 68.2 °F 61% 30.21 in 10.0 mi North - - N/A   Scattered Clouds
2:55 PM 84.7 °F 87.9 °F 68.2 °F 57% 30.20 in 10.0 mi North - - N/A   Scattered Clouds
3:15 PM 82.8 °F 85.5 °F 67.5 °F 60% 30.20 in 10.0 mi North - - N/A   Scattered Clouds
3:35 PM 83.1 °F 85.9 °F 67.6 °F 59% 30.20 in 10.0 mi North - - N/A   Scattered Clouds
3:55 PM 82.8 °F 86.0 °F 68.5 °F 62% 30.19 in 10.0 mi North - - N/A   Scattered Clouds
4:15 PM 82.0 °F 85.1 °F 68.2 °F 63% 30.20 in 10.0 mi North - - N/A   Mostly Cloudy
4:35 PM 81.5 °F 84.2 °F 68.0 °F 63% 30.20 in 10.0 mi North - - N/A   Scattered Clouds
4:55 PM 80.8 °F 83.5 °F 68.2 °F 65% 30.21 in 10.0 mi North - - N/A   Clear
5:15 PM 81.0 °F 83.9 °F 68.5 °F 66% 30.21 in 10.0 mi North - - N/A   Scattered Clouds
5:35 PM 82.0 °F 85.1 °F 68.2 °F 63% 30.21 in 10.0 mi North - - N/A   Scattered Clouds
5:55 PM 81.7 °F 84.7 °F 68.5 °F 64% 30.21 in 10.0 mi North - - N/A   Scattered Clouds
6:15 PM 81.9 °F 84.8 °F 68.0 °F 63% 30.21 in 10.0 mi North - - N/A   Scattered Clouds
6:35 PM 81.7 °F 84.5 °F 68.2 °F 63% 30.21 in 10.0 mi North - - N/A   Scattered Clouds
6:55 PM 81.7 °F 84.7 °F 68.5 °F 64% 30.21 in 10.0 mi North - - N/A   Scattered Clouds
7:15 PM 81.3 °F 84.5 °F 68.9 °F 66% 30.21 in 10.0 mi North - - N/A   Mostly Cloudy
7:35 PM 79.9 °F - 68.4 °F 68% 30.22 in 10.0 mi North - - N/A   Mostly Cloudy
7:55 PM 78.1 °F - 68.2 °F 71% 30.23 in 10.0 mi North - - N/A   Scattered Clouds
8:15 PM 77.5 °F - 68.0 °F 72% 30.23 in 10.0 mi North - - N/A   Clear
8:35 PM 77.0 °F - 68.5 °F 75% 30.23 in 10.0 mi North - - N/A   Scattered Clouds
8:55 PM 75.2 °F - 68.7 °F 80% 30.23 in 10.0 mi North - - N/A   Mostly Cloudy
9:15 PM 76.3 °F - 68.5 °F 77% 30.24 in 10.0 mi North - - N/A   Overcast
9:35 PM 75.4 °F - 68.2 °F 78% 30.24 in 10.0 mi North - - N/A   Overcast
9:55 PM 75.4 °F - 68.5 °F 79% 30.24 in 10.0 mi North - - N/A   Mostly Cloudy
10:15 PM 71.6 °F - 68.9 °F 91% 30.25 in 10.0 mi North - - N/A   Scattered Clouds
10:35 PM 70.7 °F - 68.9 °F 94% 30.25 in 10.0 mi North - - N/A   Clear
10:55 PM 70.3 °F - 68.9 °F 95% 30.25 in 10.0 mi North - - N/A   Clear
11:15 PM 70.2 °F - 68.9 °F 96% 30.25 in 10.0 mi North - - N/A   Clear
11:35 PM 69.4 °F - 68.2 °F 96% 30.25 in 10.0 mi North - - N/A   Clear
11:55 PM 69.1 °F - 68.4 °F 98% 30.25 in 10.0 mi North - - N/A   Clear